Theta_e
301 300 301 302 303 303 302 301 302 302 301 302 302 302 302 301 302 301 300 300 301 300 301 301 301 300 301 300 301 300 301 300 300 300 299 299 299 298 300 300 301 305 304 302
301 302 302 302 302 302 303 302 302 302 302 303 303 302 302 302 300 300 301 301 301 300 299 299 299 300 300 300 301 300 299 301 300 300 299 297 299 299 299 299 301 299 299 300
298 299 300 300 301 302 302 301 302 302 302 301 300 301 301 300 300 301 301 300 299 298 298 299 299 299 299 299 299 299 299 299 299 299 298 298 299 299 298 300 300 299 300 301
297 298 299 302 300 301 302 301 301 301 301 301 301 300 300 301 301 300 299 298 298 297 297 297 297 297 296 297 297 297 298 298 299 298 298 298 298 298 298 300 299 299 299 299
296 297 300 301 301 300 301 301 301 301 300 300 300 301 300 300 298 297 297 297 296 295 295 294 294 294 295 295 295 295 296 297 297 297 298 298 298 298 299 299 299 298 298 297
298 295 297 300 301 302 300 300 300 300 300 299 300 298 299 297 297 296 295 294 294 294 294 294 294 294 294 294 294 294 295 295 296 296 297 297 297 298 299 298 298 297 296 295
299 294 299 299 300 301 300 299 300 300 301 300 298 298 297 296 295 294 294 294 294 293 293 293 293 293 293 294 294 294 294 295 295 296 296 296 298 297 296 297 296 295 295 297
298 296 301 301 300 300 300 300 300 301 300 298 297 296 295 294 294 293 293 293 293 293 293 293 294 294 294 294 294 294 294 295 295 295 295 296 296 296 296 295 295 297 297 299
299 300 300 301 301 301 300 300 301 299 298 296 295 295 294 293 293 293 293 293 293 293 294 294 294 294 295 295 293 294 294 294 294 295 295 295 296 295 295 295 296 297 299 299
301 299 299 300 302 301 300 301 300 298 297 296 294 294 293 293 293 292 293 293 293 294 294 294 294 295 295 295 294 293 294 294 293 294 295 295 294 294 293 295 295 297 298 298
298 299 300 300 300 300 300 301 300 298 297 295 294 293 293 292 292 292 292 293 293 294 294 295 295 295 295 296 294 294 293 293 293 294 294 293 293 293 294 295 296 299 298 298
301 301 300 300 300 300 300 300 298 297 295 294 293 293 292 292 292 292 293 293 294 295 295 295 295 295 296 295 295 294 293 294 294 294 294 294 294 294 295 297 298 298 297 299
301 301 300 300 300 300 300 298 297 295 294 293 292 292 292 292 292 293 292 293 293 294 295 295 295 295 296 296 295 295 295 293 295 294 294 294 295 295 296 297 297 298 302 303
301 300 299 300 300 300 299 298 296 294 293 292 292 291 291 291 291 292 293 294 294 294 294 294 295 295 296 295 296 296 296 295 296 295 295 295 295 296 297 297 297 301 303 302
302 301 301 300 300 299 298 297 295 294 293 292 292 291 291 291 291 292 292 293 294 296 295 294 294 295 295 295 295 296 295 296 295 296 296 297 296 296 296 296 299 302 301 301
301 301 300 300 299 298 297 295 294 293 292 292 291 291 290 290 290 291 292 293 293 294 294 294 294 294 295 295 296 296 297 297 297 298 298 297 297 296 296 299 301 300 300 303
300 300 299 299 299 298 297 295 293 293 292 291 291 290 290 291 290 291 292 293 293 294 294 294 294 294 295 295 296 296 297 297 298 298 299 300 301 301 300 300 300 301 303 303
301 301 300 300 300 298 296 294 293 292 292 291 290 290 290 290 290 291 292 292 293 294 294 294 294 294 295 295 296 296 297 297 297 297 298 298 299 299 300 301 302 302 302 302
300 300 300 300 299 297 295 294 293 292 291 290 290 291 290 289 290 291 291 292 292 293 294 294 293 293 294 295 295 296 297 297 297 297 297 297 298 299 299 300 301 301 300 301
300 299 299 299 297 295 295 294 292 291 291 290 291 291 290 289 289 290 291 291 291 292 294 294 293 293 293 294 295 295 296 296 296 297 297 298 298 299 299 299 299 298 299 299
300 299 299 298 296 295 294 293 291 291 291 290 291 291 291 290 289 289 288 289 291 292 294 293 293 292 292 293 294 295 295 296 296 296 297 297 297 297 297 296 296 296 296 296
300 299 298 296 296 295 293 292 292 291 291 290 291 291 291 290 289 289 288 288 290 292 292 294 293 293 292 292 293 294 295 295 296 296 296 296 296 297 297 297 297 297 296 297
299 299 297 296 295 294 293 292 292 291 291 290 290 291 291 290 289 289 288 288 288 290 291 292 293 293 292 292 292 292 293 293 294 295 295 295 296 296 296 296 296 296 297 296
299 298 296 296 295 294 293 292 292 291 291 290 290 291 290 290 289 289 288 288 288 288 290 291 292 292 292 292 292 291 291 292 293 293 294 294 294 294 294 294 295 295 295 295
299 298 296 296 295 294 293 292 292 291 290 290 290 291 290 290 289 289 288 288 288 288 288 288 290 291 291 292 292 291 291 290 290 291 292 292 293 293 293 293 293 293 294 294
300 298 297 296 295 294 293 292 292 291 290 290 291 291 291 290 290 289 288 288 288 288 288 287 287 289 291 291 291 291 291 291 290 290 290 290 291 291 291 291 291 291 292 292
299 297 296 295 295 293 293 292 292 291 290 290 291 291 291 291 290 289 288 288 288 288 287 287 287 287 289 290 291 291 291 291 291 290 289 289 290 290 290 290 290 290 290 290
Wind_Speed
5 7 4 7 12 9 10 7 8 13 8 17 13 16 24 25 32 33 33 38 39 38 41 42 43 46 40 46 43 43 42 37 38 39 39 38 34 33 30 30 27 23 28 33
5 4 2 8 12 11 16 15 16 22 26 22 28 21 23 27 32 33 39 40 37 42 45 45 45 40 46 45 43 44 45 42 40 43 43 41 36 33 33 31 28 35 36 36
5 5 7 9 9 13 5 5 9 10 15 7 6 11 19 26 32 36 37 37 46 45 44 44 44 46 45 45 47 44 46 45 43 42 41 41 36 37 34 32 35 39 33 37
3 4 2 5 3 3 8 6 10 11 8 10 17 25 24 34 30 33 40 42 43 44 46 48 47 47 48 47 45 45 43 46 41 41 40 41 36 36 35 34 36 39 34 39
1 2 8 8 1 7 6 7 11 10 4 18 22 28 21 23 27 36 38 41 42 44 45 48 47 47 46 47 45 44 44 43 41 40 39 38 36 36 33 34 37 35 39 46
2 3 6 4 3 5 6 8 6 3 7 11 14 8 14 33 41 40 41 43 43 42 44 45 45 45 46 47 46 44 42 42 40 39 36 37 39 36 32 35 36 41 47 43
5 4 9 12 13 1 3 6 11 8 10 14 5 15 33 38 42 44 46 44 45 49 45 42 45 46 47 50 49 47 43 41 41 33 35 36 30 34 35 36 41 45 39 38
3 3 10 14 7 8 6 4 9 10 15 19 24 31 33 37 36 37 40 46 47 48 47 49 47 46 49 49 48 47 45 43 39 36 36 33 38 34 35 41 40 32 33 38
10 8 5 16 7 14 9 12 8 13 15 21 29 36 37 40 39 39 40 42 46 46 51 51 48 46 49 50 45 43 36 37 35 30 34 33 29 35 38 36 29 29 30 37
1 7 23 24 25 20 21 9 11 14 19 25 30 33 35 34 37 41 40 43 47 49 50 51 51 48 45 47 41 34 36 32 29 28 27 29 28 30 31 29 29 28 31 38
7 20 21 22 23 13 9 13 15 17 22 25 25 28 28 33 36 37 40 41 45 47 49 50 47 44 43 40 33 30 27 25 24 24 22 24 25 25 26 27 25 31 33 30
9 18 15 11 9 10 14 14 14 18 21 21 21 23 27 28 31 36 39 41 44 44 45 48 49 50 49 41 37 29 26 24 24 22 22 26 25 27 23 21 25 29 28 27
22 24 17 13 14 16 15 12 14 17 18 19 19 20 23 26 31 33 36 40 44 43 43 45 48 51 43 43 33 27 25 24 24 23 25 24 24 26 25 22 28 23 19 15
29 31 24 28 17 13 11 13 15 16 16 18 19 21 22 25 31 33 35 38 41 40 41 43 46 49 43 43 36 24 20 22 24 24 24 24 23 20 21 25 25 11 4 8
25 26 27 22 16 14 13 14 15 15 16 19 20 21 22 27 31 33 33 34 38 38 40 43 46 48 43 41 34 27 22 21 20 20 20 19 17 17 18 17 8 7 8 21
12 18 19 19 16 14 13 12 14 15 16 19 18 20 22 25 29 29 32 33 38 38 39 41 44 45 39 39 35 29 25 25 20 17 14 9 9 8 7 2 10 7 18 25
22 17 17 18 18 15 13 13 12 13 15 16 17 19 21 27 27 27 30 31 33 35 35 39 41 40 36 36 32 26 24 24 18 14 11 9 8 10 11 11 15 16 24 31
24 22 19 17 13 13 12 12 12 12 15 14 15 17 23 24 25 25 25 29 31 34 35 38 37 35 34 33 29 24 21 20 18 16 19 22 22 23 24 30 33 32 29 25
17 19 17 16 13 10 10 11 12 12 12 11 14 19 21 21 23 25 24 25 29 33 35 35 35 33 31 29 28 23 21 18 18 17 23 24 27 29 27 28 28 26 26 26
15 15 15 15 12 10 10 11 13 10 9 12 13 17 20 21 23 24 23 23 24 29 29 28 33 32 29 25 25 25 21 18 16 17 21 23 23 23 24 26 28 28 28 28
17 16 15 14 10 9 10 11 12 9 10 11 12 16 19 19 21 22 22 23 23 26 25 26 30 29 28 25 23 23 24 21 20 18 18 22 24 27 29 30 28 26 25 26
18 17 16 13 10 9 10 11 11 10 11 12 11 13 17 18 20 20 19 18 19 21 24 24 25 26 26 26 23 22 20 20 20 19 18 19 21 22 23 24 27 28 28 26
19 17 15 13 10 9 9 10 11 11 12 12 11 13 16 16 19 21 24 22 21 19 19 18 23 22 21 23 24 19 20 18 17 16 17 17 17 18 19 19 19 19 19 18
21 18 16 11 10 10 11 9 11 13 13 11 10 11 15 15 15 14 16 19 20 19 16 15 16 19 17 18 19 19 20 18 16 15 14 14 15 15 16 17 18 17 17 17
23 19 16 14 12 12 10 10 13 12 11 10 8 10 11 11 14 17 17 18 19 19 17 14 13 12 13 14 14 15 15 17 17 13 12 13 14 14 14 14 14 13 12 11
23 22 19 14 12 10 9 12 14 11 10 11 8 9 10 11 13 15 16 18 18 17 17 16 13 11 10 10 11 11 11 12 13 14 11 11 9 9 9 9 9 8 8 8
22 19 18 16 14 11 11 13 13 12 10 11 10 9 11 13 15 15 15 16 15 15 14 15 14 11 9 7 9 10 10 8 9 11 11 10 7 7 8 8 9 8 8 8
Wind_Direction
254 245 229 241 245 214 218 200 208 265 245 273 288 300 301 306 317 315 312 313 310 307 307 304 304 304 297 302 298 305 303 287 294 297 302 304 297 302 291 298 293 287 290 294
299 348 308 272 262 226 237 240 250 260 273 269 283 292 304 315 315 312 312 310 310 311 308 306 307 303 304 297 295 299 301 294 291 293 299 301 292 297 296 289 285 293 289 291
267 346 318 286 249 205 205 196 215 232 250 297 292 292 303 310 311 308 307 308 310 309 309 309 306 305 302 298 298 294 291 292 289 293 293 290 286 292 294 284 290 301 288 289
261 350 325 251 303 198 200 233 234 265 276 304 301 307 313 309 309 307 307 307 308 309 308 306 305 302 300 298 296 294 289 289 285 290 288 292 283 290 294 286 293 302 292 295
155 217 294 282 245 189 186 262 230 244 293 309 312 312 304 314 309 304 306 307 307 307 306 306 305 305 302 300 298 295 291 288 288 288 287 284 285 290 289 287 297 296 298 302
129 172 241 246 165 80 110 288 193 124 281 283 309 305 310 319 318 316 314 313 313 313 311 309 308 308 305 299 297 293 291 290 289 288 280 276 287 285 286 294 294 297 298 296
208 245 281 248 226 290 87 248 177 265 276 302 245 279 303 314 317 320 318 320 322 320 316 312 311 308 303 301 297 296 291 288 288 285 289 287 280 286 291 292 297 301 295 291
144 173 264 180 105 176 211 282 297 299 311 314 315 313 315 320 318 321 321 323 322 317 316 318 316 311 305 303 305 304 298 295 289 280 286 282 289 290 288 296 301 296 293 296
188 215 252 200 230 205 310 309 294 300 317 321 321 323 326 324 327 322 321 320 319 318 317 318 318 315 310 310 317 308 304 297 295 288 285 288 287 293 295 299 293 292 283 293
218 250 243 241 244 256 291 278 297 310 319 324 323 326 326 326 322 324 325 322 325 324 323 321 323 323 321 319 318 315 306 299 299 297 291 289 292 294 296 290 293 285 286 298
262 276 268 261 258 263 280 285 295 307 319 323 324 326 325 320 325 323 323 325 332 330 332 335 342 338 331 322 319 316 311 303 298 295 298 299 295 293 291 295 284 281 294 292
240 252 247 258 235 289 279 273 295 313 320 323 324 322 325 324 324 327 326 328 337 332 338 341 339 336 334 334 325 313 308 303 299 299 290 290 294 293 293 286 287 292 284 274
240 265 264 269 286 293 267 278 306 315 317 321 328 327 326 324 327 330 337 337 335 332 341 344 341 342 347 350 334 320 307 303 300 295 295 298 298 297 296 296 298 294 286 261
250 255 262 265 276 272 257 289 306 312 319 328 333 329 325 326 333 332 345 345 337 338 347 348 347 347 348 352 352 337 321 311 304 299 293 293 291 289 289 292 302 322 211 197
249 255 258 259 264 244 267 290 302 316 328 330 331 329 332 330 329 334 343 346 346 343 348 353 351 349 351 354 356 355 349 333 322 313 308 294 288 285 283 286 296 124 130 141
262 245 244 238 240 243 265 288 304 320 327 331 329 332 331 329 328 337 341 349 349 347 350 353 353 350 352 357 355 357 357 357 343 343 342 331 298 269 239 186 154 168 149 137
235 225 218 223 234 247 273 291 304 313 318 323 324 328 330 330 333 343 346 352 355 353 354 352 352 351 357 2 357 1 8 9 10 16 22 46 56 91 115 126 131 129 135 140
255 258 253 257 248 253 276 292 300 308 316 319 327 329 330 336 337 338 343 348 352 356 358 355 356 355 2 7 1 5 14 21 25 47 68 81 98 110 116 115 122 123 129 135
240 237 240 238 252 268 287 290 296 301 311 314 324 329 336 340 340 339 341 346 350 354 356 356 356 359 3 9 9 15 21 28 42 65 81 90 104 107 114 118 121 126 127 125
231 219 221 233 248 275 287 289 295 297 301 312 319 330 336 344 343 341 345 344 355 357 351 355 1 5 6 7 15 26 30 41 57 73 80 89 95 100 104 108 106 108 116 123
224 212 219 231 251 274 280 286 287 285 295 308 317 328 335 339 340 344 349 343 356 359 356 6 9 8 11 11 18 30 36 43 56 74 82 87 96 100 103 104 106 111 111 112
213 213 219 229 254 270 273 282 282 290 294 306 307 322 331 337 339 343 355 346 346 354 353 13 9 10 11 18 24 31 36 43 51 58 70 85 100 108 107 110 112 113 112 113
216 218 223 235 261 277 270 269 286 287 297 300 305 320 329 336 340 338 344 356 350 349 352 0 360 9 12 21 28 34 41 44 50 58 66 76 91 96 100 101 105 108 110 111
224 225 230 238 256 262 267 272 275 279 292 296 295 318 324 328 340 340 338 343 347 351 352 353 357 0 10 19 27 33 40 45 49 59 70 78 81 86 92 98 101 102 104 110
228 231 228 237 254 268 274 269 270 276 285 288 293 308 320 324 331 341 346 347 347 348 351 354 353 2 14 17 23 27 37 42 41 52 64 74 81 86 91 95 101 111 118 124
227 230 235 246 259 270 262 261 269 272 273 280 287 304 316 325 326 329 335 342 346 349 348 352 359 360 14 26 25 24 25 38 44 44 50 63 73 82 87 90 97 106 113 122
231 230 228 231 245 257 258 265 260 267 265 272 288 309 308 319 322 327 329 337 344 348 353 352 354 358 358 4 6 11 22 26 32 35 47 58 76 86 89 94 99 114 122 127